Location: Bishop�s Knoyle
(51.0728°N, 2.1714°W)
Time: 09:20:45
(UTC+00:00)

BEESAT 2 - Pass Details

Date: 07 December 2021
Orbit: 498 x 513 km, 64.9° (Epoch: 20 January)

Event Time Altitude Azimuth Distance (km) Brightness Sun altitude
Exits shadow 06:34:25 17° 269° (W) 1,349 ? -12.3°
Maximum altitude 06:35:37 20° 244° (WSW) 1,246 ? -12.1°
Drops below altitude 10° 06:38:27 10° 197° (SSW) 1,734 ? -11.7°
Sets 06:41:02 0° 180° (S) 2,612 ? -11.3°
